Wind_Speed
16 14 14 14 13 12 13 13 12 12 12 12 12 13 12 11 11 12 12 12 10 10 9 9 8 8 7 6 6 5 5 4 3 3 3 3 2 1 1 1 1 1
16 15 15 14 12 12 13 13 12 12 12 11 11 12 12 11 11 11 11 11 11 10 10 9 8 8 7 6 6 6 4 3 3 3 3 3 2 2 2 2 2 2
15 15 14 14 13 13 14 13 12 12 12 10 10 12 12 12 12 12 11 11 11 11 10 9 8 8 8 7 7 6 5 5 5 4 3 3 2 3 3 3 3 3
15 15 15 14 13 14 14 13 12 12 12 11 11 11 11 11 12 12 12 11 10 11 11 10 9 8 8 8 7 7 6 6 5 4 3 3 3 4 4 4 4 4
16 15 15 14 14 14 13 13 13 12 12 12 12 11 10 11 12 12 12 12 11 10 10 10 9 9 8 8 8 7 6 6 6 6 5 4 4 5 5 5 5 4
17 16 15 14 15 15 14 14 13 12 12 12 12 12 11 11 12 12 12 12 12 11 10 10 10 9 9 9 8 7 6 6 6 7 7 6 6 6 5 5 4 3
18 17 16 15 15 15 15 14 14 13 13 12 12 12 12 12 12 11 12 12 12 11 11 11 10 10 9 9 9 8 7 7 5 6 7 7 7 7 6 6 5 5
19 18 17 16 15 15 15 13 13 13 12 12 12 12 12 13 12 12 11 11 11 11 10 10 10 10 9 9 9 8 8 8 7 7 8 7 7 7 7 7 6 6
19 18 18 17 16 16 15 14 14 13 12 12 12 12 12 12 12 12 12 12 11 11 10 9 10 11 10 9 9 9 9 8 8 8 9 8 8 8 8 8 8 8
19 18 18 18 17 16 16 15 15 14 13 12 12 12 11 11 12 12 12 13 11 10 11 10 10 11 10 9 9 9 9 9 8 8 8 8 9 9 9 9 9 9
20 19 18 18 17 17 16 16 15 15 14 13 12 12 12 12 12 12 12 13 12 11 11 11 10 10 10 10 9 8 8 8 8 8 9 9 9 9 9 10 10 10
21 19 19 19 18 17 16 15 15 15 14 13 12 12 13 13 11 12 13 13 12 11 11 12 12 11 10 10 9 8 8 8 8 9 9 10 10 10 10 10 11 11
21 20 19 18 18 17 16 15 16 16 15 13 12 12 12 14 13 12 13 14 13 12 11 11 12 11 10 11 9 9 9 9 10 10 9 10 11 11 11 11 12 12
21 20 20 18 18 18 17 16 17 20 18 15 14 13 12 14 14 13 12 13 13 12 10 11 12 12 12 12 11 10 10 11 11 10 9 10 12 12 10 11 13 13
21 20 19 18 16 17 18 17 14 18 21 19 17 16 14 15 16 15 13 13 13 13 13 11 12 13 13 12 13 13 12 9 9 10 10 10 12 12 10 10 13 12
21 20 19 18 15 13 16 17 13 12 17 20 20 18 16 17 18 16 15 15 14 14 14 11 10 12 13 13 13 13 12 9 8 9 10 10 12 12 11 11 11 11
15 14 15 18 15 10 12 15 15 11 10 13 16 17 16 15 15 15 16 16 15 15 14 11 11 12 12 14 14 14 13 10 8 8 9 9 10 11 11 11 11 11
10 6 4 2 3 3 5 10 12 10 8 7 9 12 13 11 11 12 12 12 12 14 13 12 12 13 13 14 15 15 14 12 9 7 8 9 9 9 10 11 12 12
13 8 3 2 2 7 9 10 11 12 11 8 6 8 11 11 12 12 11 11 10 8 12 14 13 13 14 15 15 15 15 15 12 9 8 10 11 11 11 10 10 9
12 12 12 12 15 19 17 15 15 16 16 13 11 9 8 8 8 8 7 8 7 4 11 15 13 12 13 13 14 14 14 14 13 10 9 11 12 11 8 5 4 5
13 15 15 15 18 23 22 18 18 18 17 16 15 12 5 4 6 8 6 4 1 5 9 11 10 10 10 10 11 12 12 12 11 9 9 9 7 4 3 3 3 4
16 18 17 16 18 22 23 20 17 15 15 14 13 11 8 6 7 8 8 4 1 4 6 7 7 7 7 8 8 8 8 8 6 5 5 5 4 4 3 2 2 4
18 18 19 21 21 20 18 17 14 12 12 12 9 7 9 13 11 6 6 7 7 8 8 7 6 5 5 6 6 6 6 4 1 2 2 2 4 5 3 3 3 4
15 14 15 18 18 15 14 13 11 10 9 7 6 6 8 13 14 9 10 12 12 11 10 9 7 5 4 5 4 4 4 3 1 2 0 3 4 4 2 2 2 2
11 11 12 13 13 13 14 14 11 9 6 4 5 8 10 11 13 11 13 15 14 13 12 11 10 8 5 3 2 2 2 3 2 1 3 4 4 4 2 0 2 3
8 10 11 12 13 14 14 13 11 9 9 9 11 14 15 14 14 14 15 15 14 14 14 13 12 11 9 6 5 4 4 5 6 6 6 7 8 6 3 2 3 4
Wind_Direction
176 175 178 178 178 178 174 176 180 179 178 178 178 181 185 185 182 179 178 178 183 181 179 182 175 173 177 177 190 189 170 186 189 171 184 189 210 270 259 270 309 319
178 180 181 179 182 182 179 182 183 182 183 180 179 179 180 182 179 176 175 175 180 184 182 183 181 178 181 184 188 190 188 201 200 189 197 193 209 261 268 276 268 268
178 180 183 182 182 181 184 186 183 184 185 181 180 178 177 179 179 177 177 177 181 186 185 185 188 183 183 187 187 189 200 208 208 214 214 201 232 269 265 280 276 246
180 182 185 185 183 183 185 184 183 187 185 183 183 181 181 181 180 180 181 183 186 188 186 187 194 192 187 192 194 195 206 212 215 228 235 227 252 273 268 275 282 272
185 187 188 188 186 186 187 184 186 189 186 186 185 184 185 180 178 182 184 186 189 189 188 189 195 196 191 196 201 200 207 216 220 222 229 238 248 260 268 267 267 270
188 190 190 191 188 185 188 187 189 191 188 187 184 183 184 179 180 186 186 187 190 191 192 192 195 198 196 197 203 207 213 221 222 213 216 232 245 254 262 257 254 254
189 192 191 192 190 187 190 190 189 192 192 191 188 186 185 184 188 191 189 191 193 197 199 194 193 199 201 200 204 212 218 226 227 212 215 231 244 254 261 261 257 250
188 192 193 194 193 192 194 193 191 194 195 193 190 189 190 191 192 194 195 194 194 200 202 197 195 200 204 204 206 212 218 224 227 222 227 237 243 250 258 264 264 257
191 192 194 197 196 196 196 194 193 195 198 199 196 193 194 196 195 195 196 195 197 200 199 201 202 200 206 211 210 213 218 224 230 228 228 233 239 246 248 251 255 255
195 195 196 198 198 199 198 195 193 193 196 202 201 196 195 200 203 201 194 191 197 200 196 201 205 201 207 215 214 217 220 226 235 235 235 235 238 244 246 247 248 248
196 198 199 199 201 202 201 199 195 193 197 202 202 201 198 196 199 202 196 191 196 204 200 202 208 208 210 215 217 220 221 226 235 239 244 247 249 252 251 250 252 251
198 199 200 202 202 203 204 200 192 190 196 200 203 206 201 199 201 201 199 195 199 207 206 207 211 212 215 218 219 222 223 228 232 236 244 248 251 258 259 255 253 252
202 201 203 205 203 205 207 199 190 192 198 199 203 206 203 206 210 204 199 200 204 209 210 212 213 213 216 217 217 223 229 233 233 235 245 248 246 252 261 263 257 253
206 204 206 207 204 207 213 208 196 194 198 200 202 206 206 208 210 208 206 205 206 209 210 213 215 215 216 217 216 223 233 241 243 244 249 253 252 252 260 271 268 261
208 207 209 213 209 204 213 223 212 195 194 199 203 206 209 210 209 211 215 211 207 209 208 209 217 219 220 223 224 226 230 238 244 246 250 256 261 261 262 272 276 273
206 206 207 214 217 207 209 225 233 213 198 197 198 202 208 213 208 202 204 207 208 210 207 204 210 216 221 226 227 228 229 230 235 241 249 257 264 269 271 275 280 284
212 213 208 209 214 214 207 216 231 239 223 204 200 204 210 215 210 203 204 207 204 200 200 202 208 214 221 223 222 223 224 224 233 245 254 264 269 270 276 283 287 291
218 247 297 260 224 223 200 202 217 233 243 231 215 214 216 217 217 219 220 219 208 192 187 202 216 216 218 219 217 219 222 222 231 247 257 268 273 270 274 282 283 287
199 217 285 359 187 213 206 197 205 217 225 229 224 224 227 225 223 226 227 230 230 199 184 200 212 207 207 212 214 219 222 223 229 245 262 270 277 281 283 284 284 295
183 197 212 200 199 211 213 203 204 211 215 214 210 214 237 253 245 243 245 242 239 174 166 185 193 191 196 205 209 214 218 221 227 241 263 271 277 285 293 305 317 323
188 193 197 190 196 210 215 210 205 207 209 210 206 202 219 293 271 253 264 285 51 116 143 158 167 176 187 197 206 212 219 227 235 246 263 275 289 308 327 5 30 33
203 205 194 187 196 206 212 211 206 203 206 210 208 199 195 214 227 230 241 255 116 158 161 142 146 171 187 200 210 217 225 234 245 257 271 299 347 22 42 37 50 75
203 207 194 190 195 197 203 209 207 202 205 207 201 188 189 201 204 197 198 194 180 179 172 148 144 167 190 207 215 221 220 210 222 287 297 24 42 43 50 57 67 98
194 198 190 189 190 189 196 209 208 200 202 203 187 153 155 189 201 178 140 146 153 156 157 150 138 136 169 200 213 227 219 197 216 282 254 106 86 61 44 46 53 62
188 194 189 185 184 182 189 201 202 191 179 155 145 136 132 165 192 171 128 126 133 134 136 136 127 116 120 149 164 177 166 144 135 129 113 113 100 72 55 3 17 28
165 173 171 166 162 161 167 177 177 164 149 128 121 124 129 145 164 153 130 125 128 125 120 116 112 105 98 95 97 116 137 129 111 101 99 101 98 88 86 92 58 41
Height
835 836 837 838 839 840 841 842 844 845 846 847 848 850 850 852 853 854 855 856 857 858 859 860 861 861 862 863 863 864 864 865 865 865 865 865 866 865 865 865 865 865
834 835 837 838 838 839 840 841 843 844 845 846 847 848 849 851 852 853 854 855 856 857 858 859 859 860 861 862 862 863 863 864 864 864 865 865 865 865 865 865 865 865
833 834 836 837 837 838 840 841 842 843 844 845 846 847 848 849 851 851 853 854 855 856 856 858 858 859 860 861 861 862 862 863 863 864 864 864 864 864 864 864 864 864
832 833 834 835 836 837 838 840 841 842 843 844 845 846 847 848 849 850 851 852 853 854 855 856 857 858 859 859 860 861 861 862 862 863 863 863 864 864 864 864 864 864
830 831 832 834 834 836 837 838 839 840 841 842 843 844 845 847 848 849 850 851 852 853 854 855 856 857 858 858 859 860 861 861 861 862 862 862 863 863 863 863 863 864
828 829 831 832 832 834 835 836 838 838 839 841 842 843 844 845 847 848 849 850 851 852 853 854 855 856 857 857 858 859 859 860 860 861 861 861 862 862 862 863 863 863
826 827 829 830 831 832 834 835 836 837 838 839 840 842 843 844 846 846 848 849 850 851 851 852 853 855 856 856 857 858 858 859 860 860 861 861 861 861 861 862 862 862
824 826 827 829 829 831 832 833 835 836 837 838 839 841 842 843 844 845 847 848 848 850 850 851 852 853 855 855 856 857 857 858 859 859 860 860 860 861 861 861 862 862
823 824 826 827 828 830 831 832 834 835 836 838 839 840 841 843 844 844 846 847 848 849 849 851 851 852 854 855 855 856 857 857 858 858 859 859 859 860 860 861 861 861
822 822 824 826 827 829 830 831 833 834 836 837 838 839 840 842 843 844 845 846 847 848 849 850 851 852 853 854 855 855 856 857 857 858 858 858 858 859 859 860 860 860
820 821 823 824 826 827 829 830 832 833 835 836 837 838 839 841 842 843 844 845 846 848 848 850 850 851 853 853 854 855 855 856 857 857 857 857 858 858 858 859 859 859
819 820 822 823 825 827 828 830 831 833 835 836 837 838 839 840 842 843 844 845 846 847 848 849 850 851 852 853 854 854 854 855 855 856 856 857 857 857 858 858 858 858
817 819 821 823 825 826 828 830 831 833 834 836 837 838 839 840 841 842 844 845 846 847 848 849 849 850 851 852 852 853 853 854 854 854 855 855 855 856 857 857 857 857
817 819 821 822 824 826 827 829 830 831 833 835 837 838 839 840 841 842 843 844 845 846 847 848 849 849 850 850 851 852 852 853 853 854 854 854 854 854 855 856 856 855
817 819 820 822 824 825 827 828 829 830 831 833 835 836 838 839 840 841 843 843 845 845 846 847 848 848 849 850 850 851 851 852 852 853 853 853 854 854 854 854 854 854
817 818 820 822 823 825 826 827 828 829 830 831 833 834 836 837 838 840 841 842 843 844 846 847 847 847 848 848 849 850 851 852 852 852 852 853 853 853 853 853 853 853
818 820 821 823 823 825 826 826 828 828 829 830 831 833 834 835 837 838 839 841 842 843 845 846 846 846 847 847 848 849 850 851 851 851 851 852 852 852 852 852 852 852
819 823 825 826 826 825 825 825 826 827 828 829 830 832 833 834 836 837 838 839 840 842 843 844 844 845 846 847 847 848 849 850 851 851 851 851 851 851 851 851 851 852
818 823 826 828 828 825 823 823 824 825 826 827 828 831 833 834 836 837 838 839 840 841 841 841 843 844 845 846 846 846 848 848 849 850 850 851 850 850 850 850 850 851
817 820 823 825 824 822 821 822 823 824 825 826 828 830 833 836 838 838 838 839 839 839 840 840 841 843 843 844 845 846 847 847 848 849 849 850 850 850 850 849 849 850
816 819 821 821 820 820 819 821 822 822 823 825 826 829 833 838 841 840 839 839 839 839 840 840 840 841 842 843 844 845 846 846 847 848 849 850 850 849 848 848 848 849
814 816 819 819 819 818 818 820 821 822 823 825 826 828 833 838 841 839 838 838 839 840 840 840 840 841 842 842 843 844 845 846 847 847 848 849 848 848 848 847 848 848
810 813 817 818 818 818 819 820 821 823 824 825 826 828 832 836 837 835 835 836 837 838 839 839 840 841 841 842 843 844 844 845 846 847 847 848 847 848 848 848 848 848
811 813 816 817 818 820 821 821 822 824 824 825 826 827 830 833 834 833 833 834 834 836 837 838 839 840 840 841 842 843 844 844 845 846 846 847 847 848 848 848 848 848
811 813 815 816 818 820 821 822 823 823 824 825 826 827 828 831 833 833 833 834 834 836 836 837 838 839 840 840 841 842 843 843 844 845 845 846 847 847 848 848 848 848
809 812 813 814 816 817 818 820 821 821 823 824 826 827 828 830 832 833 833 834 835 836 837 837 838 838 839 840 840 842 843 843 843 844 845 845 846 847 848 848 848 848